COSMOS 1275 DEB, 42171

Orbit data source: Space-Track

COSMOS 1275 DEB, 42171 is space debris in LEO originally from a launch on Thu, 04 Jun 1981 UTC launched from the Plesetsk Missile And Space Complex (PKMTR). Debris objects in space refer to the collection of defunct objects orbiting the Earth. Examples of debris include non-operational satellites, rocket bodies, and fragments generated from explosions, collisions, or faulty payload assembly.

Loading next visibility...
Identifier
42171, 1981-053SK
Orbit
LEO
Country
Flag of CISCIS
Related business
Manufacturer
Unknown
Mission
Spacecraft
Bus & Motor
Unknown
Mass
Unknown
Launch date (UTC)
1981-06-04 (44 years ago)
Launch vehicle
Unknown
Launch site
Plesetsk Missile And Space Complex (PKMTR)
Object type
Payload
Rocket body
Debris
Shape & HBR
Unknown
Radar Cross Section
Small (<0.1 m²)

Expand to show TLE details & history
Last TLE update: 1 week ago

TLE from 1 week ago
0 COSMOS 1275 DEB
1 42171U 81053SK  25252.23977605  .00002184  00000-0  11031-2 0  9990
2 42171  83.0779  86.9578 0039597 125.8869 234.5997 14.15421754 65561
Epoch: 2025-09-09T05:45Z
TLE epoch observation values (Epoch: 2025-09-09T05:45:16.65Z)
Latitude
-0.00002°
Longitude
12.10503°
Altitude
860.475 km
Speed
7.414 km/s
True Right ascension
05h 47m 49s
True Declination
0° 00' 00"
Sunlit
Object was in daylight at epoch
Visualization orbit readout
Latitude
Unknown
Longitude
Unknown
Altitude
Unknown
Speed
Unknown
Apparent Right ascension
Unknown
Apparent Declination
Unknown
Sunlit
N/A
Visualization observer readout
Local Sidereal Time
23:18:07
Azimuth
Unknown
Elevation
Unknown
Doppler factor
Unknown
Orbital elements
Apogee altitude
866.539 km
Perigee altitude
809.392 km
Semi-major axis
7,216.103 km
Eccentricity
0.00396
Inclination
83.0779°
RAAN
86.9578°
Arg. of periapsis
125.8869°
True anomaly
234.2309°
Mean anomaly
234.5997°
Eccentric anomaly
234.41519°
Mean motion
3.5407 °/min
Orbital period
101.67 mins
BSTAR
0.0011031
Loading maneuver chart data...
Computing Atmospheric mass density...
Loading historical data...
Loading historical data...
Loading historical data...
Loading historical data...
Loading historical data...
Loading historical data...
Loading historical data...

Documentation

Showing up to 5 results
|